User: anonymous   Login
Location: Conflandey
(47.7287°N, 6.0456°E)
Time: 05:01:55
(UTC+00:00)
Language:

HJ-1C - Orbit

View from above orbital plane
View from above orbital plane
View from above satellite
View from above satellite

Ground track
Ground track

The orbit data is extracted from the following two-line orbital elements,

1 38997U 12064A   22021.74348360  .00011174  00000-0  22257-3 0  9996
2 38997  97.0997  51.3300 0010021  46.4442  67.0124 15.47006867515790
Epoch (UTC): 21 January 2022 17:50:36
Eccentricity: 0.0010021
inclination: 97.0997°
perigee height: 418 km
apogee height: 432 km
right ascension of ascending node: 51.3300°
argument of perigee: 46.4442°
revolutions per day: 15.47006867
mean anomaly at epoch: 67.0124°
orbit number at epoch: 51579

The dashed part of the orbit path shows where the satellite is in the earth's shadow,  

DLR